Current Version              Previous Version:    01  02  03  04  05  06  07  08  09  10  11  12  13  14  15  16  17  18  19  20  21  22  23  24  25  26  27  28  29  30  
   31  32  33  34  35  36  37  38  39  40  41  42  43  44  45  46  47  48  49  50  51  52  53  54  55  56  57  58  59  60  

[Printable]
012
ASUS44 KLUB 180901
RWRTX
WEST TEXAS WEATHER ROUNDUP
NATIONAL WEATHER SERVICE LUBBOCK TX
400 AM CDT FRI APR 18 2014

NOTE: "FAIR" INDICATES FEW OR NO CLOUDS BELOW 12,000 FEET WITH NO
SIGNIFICANT WEATHER AND/OR OBSTRUCTIONS TO VISIBILITY.

TXZ004-006>008-010-012-014-016-OKZ002-181000-
TEXAS PANHANDLE/OKLAHOMA PANHANDLE

CITY           SKY/WX    TMP DP  RH WIND       PRES   REMARKS
AMARILLO       MOCLDY    39  34  82 S9        30.24R WCI  33
BORGER         PTCLDY    44  38  79 S9        30.23S
DALHART        CLEAR     33  30  88 S8        30.22R FOG     WCI  26
GUYMON         CLEAR     36  33  89 S7        30.20F WCI  30
$$

TXZ026-029-035-045-048-181000-
SOUTHERN PANHANDLE/SOUTH PLAINS/ROLLING PLAINS

CITY           SKY/WX    TMP DP  RH WIND       PRES   REMARKS
CHILDRESS      CLOUDY    48  45  89 NW5       30.24S
LUBBOCK        CLOUDY    44  36  73 E6        30.23S
$$

TXZ052-054-060>062-072-078-127-140-154-169-181000-
PERMIAN BASIN/CONCHO VALLEY/BIG COUNTRY/EDWARDS PLATEAU

CITY           SKY/WX    TMP DP  RH WIND       PRES   REMARKS
ABILENE        CLOUDY    52  49  89 NW7       30.22S FOG
BROWNWOOD      CLOUDY    57  57 100 E3        30.19S FOG
JUNCTION       CLOUDY    61  56  83 E5        30.17F
MIDLAND        CLOUDY    51  47  86 NE12      30.20F
ODESSA         CLOUDY    52  47  83 E10       30.20F
SAN ANGELO     CLOUDY    57  53  86 E3        30.19F
WINK           CLOUDY    52  46  80 E8        30.18S
$$

TXZ055-058-074-075-080-082-181000-
FAR WEST/SOUTHWEST MOUNTAINS/TRANS PECOS

CITY           SKY/WX    TMP DP  RH WIND       PRES   REMARKS
DRYDEN           N/A     63  57  81 E15G24    30.13S
EL PASO        MOCLDY    61  30  31 CALM      30.09F
FORT STOCKTON  PTCLDY    54  50  86 E8        30.16F
GUADALUPE PASS MOCLDY    48  43  82 NE33      30.17F
MARFA          PTCLDY    45  34  65 N7        30.19S
PECOS          MOCLDY    52  46  80 NE9       30.17F
PRESIDIO       FAIR      65  47  51 NE8       30.07S
$$

TXZ014-016-019-021>030-083-181000
TEXAS TECH WEST TEXAS MESONET/TEXAS PANHANDLE/NORTHERN SOUTH PLAINS

CITY           SKY/WX    TMP DP  RH WIND       PRES   REMARKS
ABERNATHY 5ENE   N/A     38  36  91 SE5       30.24S WCI  35
AMARILLO 9NNE    N/A     34  32  92 S2        30.24R
AMARILLO 7SSE    N/A     30  28  94 SW7       30.24S WCI  23
AMHERST 1NE      N/A     35  33  90 SE5       30.24R WCI  31
BOOTLEG 11WNW    N/A     38  36  92 S9        30.23F WCI  31
CANADIAN 6E      N/A     48  37  67 SE5       30.22S
CAPROCK CYN SP   N/A     46  42  88 CALM      30.24F
CHILDRESS 2NNE   N/A     47  46  96 NW5       30.23F
CLARENDON 2WSW   N/A     45  43  93 SE3       30.24S
CLAUDE 12SW      N/A     43  35  73 S2        30.23S
DIMMITT 2NE      N/A     34  32  92 S3        30.24R
FLOYDADA 2NNE    N/A     42  37  84 E2        30.23F
FRIONA 2NE       N/A     34  32  93 S3        30.23F
GOODLETT 3W      N/A     49  45  85 N3        30.23S
HEREFORD 2NW     N/A     34  31  86 S2        30.23S
MCLEAN 1E        N/A     44  43  97 S5        30.22F
MEMPHIS 1NE      N/A     47  45  92 NW2       30.25S
MULESHOE 2SSW    N/A     29  27  92 CALM      30.24S
OLTON 6S         N/A     34  31  91 CALM      30.23S
PALO DURO SP     N/A     40  34  78 W2        30.25S
PAMPA 2E         N/A     44  43  98 S8        30.22S
PLAINVIEW 1S     N/A     38  35  87 S1        30.23S
SILVERTON 7ESE   N/A     43  40  86 E3        30.23F
TULIA 2ENE       N/A     38  34  85 NW1       30.23F
TURKEY 2WSW      N/A     46  45  96 NE1       30.24S
UMBARGER 3NNE    N/A     33  29  86 S5        30.24S WCI  28
$$

TXZ033>036-039>041-045>048-181000
TEXAS TECH WEST TEXAS MESONET/SOUTH PLAINS

CITY           SKY/WX    TMP DP  RH WIND       PRES   REMARKS
AIKEN 3WSW       N/A     37  35  92 SE6       30.24S WCI  33
ANDREWS 2NE      N/A     49  44  84 E7        30.22F
ANTON 6SSW       N/A     35  31  85 S1        30.24S
BROWNFIELD 2S    N/A     42  36  79 E5        30.23F
DENVR CTY 7WNW   N/A     38  35  87 E5        30.22F WCI  35
GAIL 2ESE        N/A     49  45  85 E3        30.22F
LAMESA 2SE       N/A     48  44  86 E6        30.23F
LEVELLAND 4S     N/A     36  33  86 E1        30.23F
LUBBOCK 3WNW     N/A     44  36  73 E5        30.24S
MORTON 1ENE      N/A     37  34  89 SE3       30.23F
ODONNELL 1N      N/A     45  38  77 E2        30.23F
PLAINS 3N        N/A     39  35  85 E6        30.22F WCI  34
RALLS 1SE        N/A     44  37  76 CALM      30.24S
REESE CENTER     N/A     44  37  77 E6        30.23F
SEAGRAVES 1SW    N/A     45  41  85 E7        30.23S
SEMINOLE 2NNE    N/A     46  43  90 E9        30.23S
SLATON 2NE       N/A     45  38  77 E3        30.24S
SNYDER 3E        N/A     48  46  93 NE3       30.23S
SUNDOWN 8SW      N/A     37  34  91 E5        30.22F WCI  33
TAHOKA 3NNE      N/A     44  38  79 E5        30.23S
WOLFFORTH 6SSW   N/A     43  36  75 E1        30.24S
$$

TXZ031-032-036>038-042>044-181000-
TEXAS TECH WEST TEXAS MESONET/ROLLING PLAINS

CITY           SKY/WX    TMP DP  RH WIND       PRES   REMARKS
ASPERMONT 3NE    N/A     48  48  99 NW6       30.23S
FLUVANNA 3WNW    N/A     48  44  85 E2        30.22F
GRAHAM 5SSW      N/A     48  42  80 SE3       30.23F
GUTHRIE 10WSW    N/A     47  46  97 N5        30.23S
HASKELL 1NW      N/A     50  50  98 NW8       30.21R
JAYTON 1SSE      N/A     47  47  98 N5        30.23S
KNOX CITY 3NW    N/A     51  48  90 NW7       30.23R
LK A HENRY 1NW   N/A     50  46  87 N1        30.23S
NORTHFIELD 1S    N/A     46  46  99 NW2       30.24F
ODELL 4ENE       N/A     48  47  95 N2        30.23S
PADUCAH 10SW     N/A     47  46  97 NW6       30.23S
POST 1NE         N/A     49  43  79 E3        30.23F
RRING SPRGS 3N   N/A     46  45  97 N1        30.23F
SEYMOUR 3NW      N/A     54  52  93 NE3       30.21S
SPUR 1W          N/A     48  45  90 NE3       30.22F
WEINERT 2NNE     N/A     53  53  97 N2        30.21R
WHITE RVR 6NE    N/A     48  41  77 N1        30.23S
$$

TXZ052-054-060>062-072-078-127-140-154-169-181000-
TEXAS TECH WEST TEXAS MESONET/PERMIAN BASIN/
CONCHO VALLEY/BIG COUNTRY/EDWARDS PLATEAU

CITY           SKY/WX    TMP DP  RH WIND       PRES   REMARKS
COYANOSA 2N      N/A     53  47  79 NE9       30.17S
JUNCTION 1SSW    N/A     61  56  85 NE5       30.18S
MERTZON 3NNE     N/A     56  52  87 NE6       30.20F
SAN ANGELO 7NW   N/A     53  49  86 NE3       30.19F
STRLNG CT 4WSW   N/A     50  47  89 W1        30.21F
ST LAWRNCE 5SW   N/A     49  45  84 SE3       30.21S
SWEETWATR 11SW   N/A     50  48  94 N5        30.22F
WALL 1E          N/A     55  49  82 N6        30.20F
$$

TXZ055-058-074-075-080-082-181000-
TEXAS TECH WEST TEXAS MESONET/FAR WEST/SOUTHWEST MOUNTAINS/TRANS PECOS

CITY           SKY/WX    TMP DP  RH WIND       PRES   REMARKS
PRSMN GAP BBNP   N/A     60  51  70 NE20      30.11S
$$